Location: Indian Hills
(32.9760°N, 85.9450°W)
Time: 23:29:19
(UTC+00:00)

Cosmos 2278 Rocket - Pass Details

Date: 09 December 2019
Orbit: 843 x 844 km, 71.0° (Epoch: 24 January)

Event Time Altitude Azimuth Distance (km) Brightness Sun altitude
Rises 00:26:03 0° 330° (NNW) 3,402 5.6 -22.3°
Reaches altitude 10° 00:28:38 10° 322° (NW) 2,464 4.9 -22.8°
Maximum altitude 00:33:49 38° 256° (WSW) 1,257 3.6 -23.9°
Drops below altitude 10° 00:38:58 10° 189° (S) 2,451 4.8 -24.9°
Sets 00:41:33 0° 182° (S) 3,382 5.5 -25.4°
